Vertical_Velocity
-3 -1 0 1 -1 0 1 0 -4 -5 -0 -2 0 1 0 -1 -0 1 -5 3 4 -1 -3 -3 -1 -3 0 -4 -0 -4 8 12 -0 11 2 -2 -1 1 -1 1 1 -2 0 -2 1 1 -3 -3 1 1 3 1 5 4
-3 -2 -1 -1 0 1 -1 0 -3 -1 -3 -4 -4 -2 -2 -1 -0 0 -3 6 -5 4 -0 -2 1 -5 -3 1 7 -3 -0 4 9 -2 -1 -3 1 1 2 -4 -3 -2 -4 1 -1 1 2 3 2 -0 2 -1 -2 -1
-3 -2 -1 -1 -1 2 -2 -1 -3 -2 1 1 -3 -1 3 1 -0 -1 -0 -1 -3 7 -1 4 1 -3 -1 -2 4 8 -2 1 -5 2 -1 -1 -6 -2 -1 0 0 -5 0 -5 -2 2 3 -1 3 2 1 2 2 -1
-2 -3 -2 -1 -1 -0 -0 -1 -2 -1 0 1 0 2 -2 0 -1 -3 -3 -4 2 10 -4 5 3 0 -1 -1 4 6 4 5 6 -1 -0 1 1 1 1 -2 -0 3 2 1 -3 -1 -1 -3 -0 -0 1 2 1 1
-1 -3 -1 -2 -1 -2 1 0 -5 -1 -3 -3 -3 -2 -4 -1 -2 1 -2 3 -3 7 6 1 1 0 0 -0 3 2 3 -2 6 19 2 2 1 -1 -3 -1 -7 1 2 1 5 0 0 0 2 -0 -1 -2 -3 -3
-1 -1 -2 -3 -1 -1 -1 -0 -2 -4 -1 -2 -5 -3 -0 1 -3 -1 -1 11 -5 -0 6 -3 -2 -0 -0 0 -1 1 2 2 2 7 -4 2 -2 -1 -1 -6 2 0 -1 -0 -1 -1 -0 -1 2 0 -2 -0 0 1
-1 0 -1 -2 0 -0 -3 -1 -0 -2 -2 -2 -4 -2 -4 -1 -1 -5 -4 -3 -3 1 8 1 -2 0 1 1 -0 3 3 3 4 5 0 4 -0 0 -6 -10 -0 -2 -2 -2 -2 -1 -2 1 3 2 0 0 -0 -1
-2 1 -0 -1 -0 0 -3 -1 1 -0 -4 -2 -4 -2 -2 1 1 -2 2 1 1 -1 -0 1 -2 -2 0 -1 -1 2 2 3 2 2 1 1 3 -1 -8 -1 -2 1 -0 -1 1 1 1 -2 -7 -2 -1 1 0 -1
-2 0 -0 0 0 1 -3 -2 2 0 1 1 -2 1 -2 -1 2 4 1 2 1 -2 -1 -3 -1 -1 0 -1 -2 0 3 3 -1 -0 -3 -3 -2 -11 1 -3 0 1 2 1 0 1 1 1 1 -0 -0 -1 0 -0
-1 -0 -1 1 1 1 1 -4 1 -0 -0 2 1 3 6 -3 1 9 15 14 2 9 -2 -6 -2 -1 0 -1 -1 -4 -1 -1 0 0 1 -2 -17 3 -1 1 0 1 0 -1 0 0 -2 -2 -2 -1 -0 -0 1 2
-0 -0 -1 -1 2 -0 2 -0 -3 -1 -1 4 2 -1 7 3 8 13 5 2 5 1 -7 -8 -5 -1 1 -1 0 -3 -0 -1 -1 -0 0 -0 -13 1 -3 -1 -2 -1 -1 -0 -2 -4 -4 -1 2 1 -1 -1 0 1
-0 -1 -2 -0 0 0 -2 2 0 -0 -2 1 -1 -1 14 6 5 1 1 -3 -2 -10 -3 -2 1 -1 -0 0 -3 0 -3 -1 -1 1 -1 -3 2 -2 -1 -1 -1 2 2 0 0 -1 -1 1 0 1 2 2 2 -0
0 -1 -1 0 -1 1 -1 -1 0 -2 -1 -2 4 8 6 0 9 -4 -1 0 -1 -6 -6 -3 -2 0 2 -1 -2 -1 0 -2 -1 -0 -4 -2 0 2 0 1 0 1 2 1 2 -0 -0 1 -0 2 4 1 0 -0
-1 -2 -0 -1 -1 2 -0 -3 0 -1 -0 -1 1 3 1 1 4 3 2 -5 -7 -2 -4 0 2 -1 -0 -0 -1 -1 -0 -0 -1 -2 -4 4 0 -1 -1 -0 1 1 2 3 2 1 2 2 -0 -0 -3 1 1 -1
-0 -1 0 0 -0 -1 -0 -3 -2 -5 -2 -2 -1 1 1 4 2 3 -1 -0 3 5 2 3 5 3 3 -1 -0 -2 -3 -2 -3 -4 1 2 0 -2 -1 1 0 1 3 3 3 3 3 3 3 0 -0 0 -2 0
-2 -0 1 -1 0 -1 -0 -4 -2 -1 -1 -1 -3 -0 2 -5 -4 0 2 1 -0 6 9 8 3 -1 -0 1 -2 -2 -1 -6 -2 -1 -0 1 0 -1 -2 -1 -0 -0 -0 2 2 2 5 2 1 2 -0 -0 1 1
0 -5 0 -1 -0 -2 -1 -2 -2 -3 -4 1 -2 -4 0 -1 2 -1 2 7 1 3 3 3 -3 -2 4 -2 -5 -7 -18 -2 4 -1 -3 -0 1 -1 -1 -1 -0 0 2 1 2 2 4 1 0 2 2 -0 -0 0
-2 -1 -2 -2 -1 -4 -3 -2 -0 -3 -0 -1 -1 1 2 -5 -3 2 -1 0 3 8 8 4 5 1 -4 -3 -10 -10 3 3 3 1 -1 -2 -1 -1 -0 -1 -1 -1 1 -2 2 -3 4 0 2 -2 0 2 0 -1
-2 -2 -1 -3 -4 -4 -5 -7 -2 -2 -3 1 1 -0 1 0 1 1 5 5 5 4 7 1 -1 -3 -5 -6 4 1 1 1 -3 -1 -1 -1 0 -0 0 1 -1 -1 -4 -1 0 1 -1 1 3 3 2 0 -1 -1
-5 -5 -3 -4 -2 -2 -6 -4 -1 -2 -3 -3 -1 1 -0 -1 2 -1 4 2 4 3 18 -6 -2 -1 2 3 -2 -4 1 -1 5 0 -3 -2 1 0 0 3 3 -1 -2 -0 2 1 1 -1 -1 -0 -0 -0 -1 -1
1 -2 0 -2 -2 1 -0 -1 -2 -2 -3 -4 -3 -4 -3 -2 -2 4 3 9 14 0 3 6 -2 0 -1 -0 -3 -1 1 5 5 2 0 -3 0 4 3 -0 0 -2 -1 -1 -1 -3 -1 2 2 3 2 -0 -0 0
-3 -1 -4 -0 -3 -3 -3 -2 -1 -2 -4 -3 -2 -1 -4 -4 -2 3 8 12 0 -6 -0 2 -0 1 2 -1 -5 -3 3 2 -2 -2 -2 -1 -2 0 1 3 0 0 -1 1 3 3 -0 -0 -0 1 1 0 -0 -2
-3 0 -3 -2 -3 -1 -3 -2 -2 -3 -2 -3 -2 -2 -1 -2 -2 -3 2 -2 -0 1 3 0 -1 3 2 1 1 -0 -2 -2 -0 -1 -3 3 3 1 2 2 2 3 -1 -0 0 2 2 2 0 0 -0 -1 -1 -2
-0 -2 -3 -2 0 -0 -2 -1 -2 -2 -4 -0 -2 -1 1 1 -1 2 -2 -2 3 2 1 3 0 -2 0 1 1 1 0 -1 -2 -2 -6 -3 2 2 2 4 2 2 3 6 2 2 2 2 1 -0 -1 0 -1 -1
1 -4 -2 -1 -1 -0 -1 -2 -2 -1 -2 -2 -3 -1 0 1 2 0 -3 -1 2 1 1 2 4 1 1 2 0 1 3 2 0 -2 1 3 3 1 1 -2 2 1 1 0 0 1 4 3 1 3 -1 -3 -1 0
-3 0 -3 -1 -0 -1 -0 -2 -3 -2 -2 -2 -2 -1 -1 -1 1 2 1 2 2 4 3 4 5 0 2 6 3 1 4 4 -1 -1 1 2 3 7 7 4 -0 1 1 -3 3 7 4 4 -4 -8 0 1 0 1
-3 -1 -3 -1 1 2 -1 -2 -1 -0 -0 -2 -1 -2 -1 -0 1 3 4 3 2 3 4 -1 -2 0 5 6 2 5 4 2 -1 2 2 5 10 12 16 16 11 5 -0 -1 -2 2 -5 -9 0 1 -0 0 1 0
-0 -3 -2 3 1 1 -0 -2 -2 -1 -1 -1 -1 -1 -1 -1 -2 -4 -3 -2 -2 -3 -1 2 3 4 3 2 2 6 5 3 2 2 4 7 8 10 12 11 2 0 -1 9 -6 -7 -1 1 0 -1 -1 -1 -2 -1
-3 0 -1 0 1 0 -3 -2 -1 -1 -1 -1 -1 0 -0 -1 -1 -3 -4 -2 -1 -0 2 2 0 -1 1 -2 -0 3 2 1 1 1 1 1 1 3 -0 -2 0 5 -6 -9 1 -0 -2 -2 -3 -2 -1 -1 0 0
1 -1 -2 0 -1 -2 -3 0 -0 -1 -1 -1 -1 -0 -1 -0 -0 -1 -1 -2 -2 -1 -2 -1 3 4 -1 -2 1 2 1 2 1 7 19 18 6 4 2 -2 2 2 1 1 -1 1 2 0 -2 -1 0 1 1 -1
0 -2 -0 -0 -4 -1 0 -0 -1 -1 -2 -1 -1 -1 -1 -2 -1 -1 -2 -1 0 2 3 3 2 4 2 3 3 2 0 4 7 11 11 6 4 4 6 6 3 3 3 -1 -2 -3 -2 1 1 2 2 2 0 1
-1 -2 -1 -3 -3 0 1 -0 -1 -2 -1 -1 -1 -1 -2 -1 -2 -3 -3 -2 -2 -1 1 2 0 2 5 5 4 4 4 5 4 4 5 12 12 7 5 4 2 -0 -1 -3 -4 -3 -1 0 1 -1 1 0 0 -1
-1 0 1 -2 -2 -2 -1 -0 -0 -3 -1 -1 -2 -1 -2 -1 -1 -1 -3 -2 -2 -1 1 2 1 2 2 5 6 6 5 6 4 2 3 4 6 8 3 -2 -2 -1 -1 1 2 2 1 -2 -1 -0 0 2 1 -2
Height
2962 2952 2943 2938 2933 2929 2924 2920 2917 2913 2910 2908 2908 2910 2912 2914 2917 2922 2928 2929 2935 2937 2940 2941 2942 2943 2943 2943 2943 2944 2945 2946 2952 2956 2956 2958 2959 2958 2957 2957 2958 2959 2958 2958 2960 2959 2957 2954 2954 2954 2956 2955 2955 2955
2958 2948 2940 2935 2930 2925 2921 2917 2914 2910 2908 2906 2906 2908 2911 2914 2917 2922 2926 2928 2932 2935 2938 2940 2940 2939 2940 2940 2941 2941 2942 2944 2947 2952 2953 2955 2956 2956 2956 2956 2956 2958 2957 2956 2957 2956 2956 2956 2956 2957 2957 2957 2957 2957
2954 2946 2938 2932 2926 2922 2918 2914 2911 2908 2906 2904 2904 2906 2909 2912 2915 2920 2924 2928 2931 2935 2937 2937 2937 2938 2937 2937 2937 2937 2939 2940 2944 2947 2950 2953 2954 2955 2954 2954 2954 2953 2955 2955 2957 2955 2955 2957 2958 2958 2959 2959 2959 2959
2952 2943 2935 2929 2923 2919 2915 2911 2908 2904 2902 2901 2901 2903 2906 2910 2913 2919 2923 2927 2931 2934 2935 2935 2934 2934 2935 2935 2934 2933 2935 2938 2942 2946 2949 2950 2952 2952 2951 2951 2951 2953 2953 2953 2954 2955 2956 2957 2959 2959 2960 2960 2961 2961
2949 2942 2933 2926 2921 2916 2912 2908 2904 2900 2898 2897 2897 2900 2903 2907 2911 2918 2924 2926 2929 2934 2933 2933 2932 2933 2933 2933 2933 2932 2933 2935 2938 2941 2944 2947 2947 2950 2948 2948 2947 2949 2951 2953 2953 2953 2955 2956 2958 2960 2961 2962 2963 2963
2947 2940 2932 2924 2918 2912 2908 2904 2900 2897 2894 2894 2895 2898 2902 2906 2912 2918 2922 2925 2928 2931 2932 2932 2932 2930 2931 2932 2933 2932 2933 2934 2936 2938 2941 2943 2945 2949 2946 2945 2947 2947 2948 2950 2951 2952 2953 2956 2957 2959 2960 2962 2963 2964
2945 2938 2930 2922 2914 2908 2904 2899 2896 2893 2891 2890 2892 2896 2899 2904 2909 2915 2920 2923 2925 2929 2932 2932 2930 2930 2930 2931 2932 2932 2931 2933 2935 2937 2938 2941 2944 2944 2942 2940 2944 2943 2945 2946 2949 2950 2952 2954 2956 2958 2959 2961 2963 2964
2943 2935 2928 2920 2912 2905 2899 2895 2890 2888 2887 2886 2889 2892 2896 2902 2910 2915 2920 2923 2924 2928 2930 2931 2930 2929 2929 2930 2932 2931 2931 2932 2934 2935 2937 2938 2939 2940 2939 2938 2940 2942 2943 2945 2947 2949 2951 2953 2955 2957 2958 2960 2962 2964
2940 2933 2926 2918 2911 2903 2896 2891 2887 2885 2884 2885 2888 2892 2897 2903 2910 2916 2919 2922 2923 2928 2928 2927 2928 2929 2929 2930 2931 2933 2932 2933 2935 2935 2936 2937 2936 2935 2936 2937 2939 2940 2942 2944 2945 2948 2950 2952 2954 2956 2958 2959 2962 2964
2938 2932 2924 2916 2909 2903 2896 2891 2886 2884 2883 2885 2889 2893 2899 2903 2910 2915 2916 2919 2921 2923 2923 2924 2927 2929 2930 2930 2931 2934 2933 2934 2934 2935 2934 2933 2930 2933 2934 2935 2937 2938 2940 2942 2945 2947 2949 2951 2953 2954 2956 2959 2961 2963
2936 2930 2923 2914 2908 2902 2896 2891 2888 2885 2884 2885 2888 2893 2899 2905 2910 2912 2913 2916 2917 2919 2919 2921 2925 2926 2929 2931 2932 2934 2934 2934 2933 2932 2931 2927 2924 2927 2929 2932 2935 2937 2939 2940 2942 2944 2946 2949 2951 2953 2955 2957 2959 2962
2934 2928 2922 2914 2906 2901 2896 2891 2889 2887 2885 2887 2890 2895 2899 2905 2906 2910 2909 2911 2911 2913 2913 2916 2922 2926 2928 2930 2932 2933 2933 2933 2930 2929 2928 2922 2921 2921 2924 2927 2929 2932 2934 2937 2939 2942 2944 2946 2948 2951 2953 2955 2958 2961
2930 2926 2920 2913 2906 2900 2895 2892 2889 2887 2887 2889 2892 2894 2896 2901 2901 2902 2900 2901 2903 2906 2909 2913 2918 2921 2926 2929 2930 2931 2930 2930 2929 2926 2922 2919 2920 2921 2922 2923 2925 2926 2928 2931 2934 2938 2941 2943 2946 2949 2952 2954 2957 2960
2927 2923 2918 2912 2905 2900 2895 2891 2889 2888 2888 2889 2891 2892 2893 2893 2894 2893 2894 2897 2904 2908 2911 2913 2916 2918 2921 2925 2927 2927 2928 2927 2925 2921 2916 2917 2917 2918 2919 2920 2921 2922 2924 2926 2930 2934 2937 2941 2944 2947 2950 2954 2956 2958
2924 2920 2916 2910 2905 2899 2894 2890 2888 2888 2888 2890 2890 2889 2888 2889 2890 2890 2893 2895 2900 2905 2909 2912 2914 2917 2919 2922 2922 2924 2924 2921 2918 2915 2915 2915 2914 2915 2915 2916 2917 2919 2920 2923 2927 2931 2936 2939 2942 2946 2948 2952 2955 2957
2920 2917 2913 2908 2903 2898 2893 2888 2886 2886 2886 2888 2887 2886 2887 2887 2889 2889 2890 2893 2897 2902 2906 2910 2912 2914 2915 2916 2917 2917 2917 2914 2914 2914 2914 2914 2913 2914 2914 2915 2915 2916 2918 2922 2926 2931 2935 2938 2941 2945 2947 2950 2953 2956
2915 2912 2909 2905 2900 2895 2891 2886 2884 2884 2884 2883 2883 2884 2884 2885 2885 2886 2887 2890 2894 2898 2900 2904 2905 2908 2909 2909 2909 2909 2910 2912 2912 2912 2913 2913 2912 2912 2913 2913 2913 2915 2918 2922 2927 2930 2934 2938 2941 2943 2946 2949 2953 2956
2911 2908 2904 2901 2896 2892 2889 2883 2881 2881 2880 2879 2880 2880 2880 2883 2883 2883 2884 2886 2889 2891 2895 2898 2900 2899 2899 2899 2900 2905 2908 2909 2909 2909 2910 2910 2910 2910 2910 2911 2912 2915 2919 2923 2927 2931 2934 2937 2940 2943 2947 2950 2953 2956
2906 2903 2900 2896 2891 2888 2885 2881 2880 2878 2876 2876 2875 2875 2875 2877 2878 2878 2878 2880 2883 2887 2890 2891 2893 2891 2893 2896 2900 2902 2904 2905 2906 2906 2906 2907 2907 2907 2908 2909 2912 2915 2919 2923 2926 2930 2933 2936 2940 2944 2947 2950 2953 2955
2900 2897 2895 2892 2889 2885 2882 2879 2877 2875 2872 2872 2871 2870 2869 2870 2871 2872 2873 2875 2878 2880 2882 2883 2883 2886 2890 2893 2895 2897 2898 2900 2901 2902 2903 2903 2904 2905 2906 2908 2910 2913 2918 2922 2925 2929 2932 2935 2939 2943 2946 2949 2951 2952
2895 2892 2890 2887 2885 2882 2880 2875 2873 2872 2869 2868 2866 2864 2863 2863 2863 2864 2866 2868 2870 2870 2872 2873 2877 2881 2885 2889 2892 2893 2894 2896 2897 2898 2898 2899 2900 2902 2904 2906 2909 2913 2917 2921 2924 2927 2931 2936 2939 2942 2945 2947 2949 2950
2888 2886 2884 2882 2879 2876 2874 2872 2871 2869 2866 2864 2863 2860 2859 2858 2857 2857 2857 2858 2859 2861 2864 2868 2872 2876 2879 2882 2886 2889 2890 2891 2893 2894 2894 2895 2896 2898 2900 2903 2906 2910 2915 2920 2923 2927 2931 2934 2937 2940 2943 2944 2946 2947
2881 2880 2878 2876 2874 2871 2872 2869 2867 2864 2862 2860 2859 2857 2855 2854 2853 2852 2851 2850 2852 2854 2856 2860 2864 2868 2872 2875 2879 2882 2884 2886 2888 2889 2890 2891 2891 2894 2898 2902 2905 2910 2913 2916 2920 2925 2929 2932 2935 2938 2940 2942 2944 2944
2875 2873 2871 2870 2868 2867 2866 2865 2863 2861 2859 2857 2856 2854 2852 2850 2849 2848 2846 2846 2847 2848 2850 2852 2856 2860 2865 2868 2872 2875 2877 2879 2881 2882 2884 2887 2889 2891 2895 2900 2903 2906 2910 2914 2918 2922 2926 2929 2932 2935 2937 2939 2940 2940
2871 2870 2868 2865 2864 2863 2862 2860 2859 2857 2856 2854 2852 2850 2848 2847 2845 2843 2842 2841 2841 2842 2843 2845 2848 2851 2856 2859 2863 2866 2868 2871 2872 2874 2877 2879 2882 2886 2890 2893 2897 2900 2905 2910 2915 2920 2924 2927 2930 2932 2934 2936 2936 2936
2865 2863 2862 2860 2859 2860 2858 2857 2856 2854 2853 2851 2849 2848 2846 2844 2841 2839 2837 2836 2835 2836 2836 2838 2841 2844 2848 2851 2854 2857 2860 2862 2864 2867 2870 2873 2877 2881 2884 2887 2890 2895 2901 2907 2914 2918 2921 2923 2926 2929 2930 2931 2932 2933
2856 2856 2855 2855 2855 2855 2855 2854 2853 2852 2850 2848 2847 2845 2843 2841 2837 2836 2834 2833 2831 2831 2830 2832 2835 2837 2840 2843 2847 2850 2852 2855 2858 2862 2865 2868 2872 2876 2881 2885 2889 2894 2899 2905 2910 2913 2916 2920 2923 2925 2926 2928 2928 2929
2849 2849 2850 2851 2851 2851 2851 2851 2850 2849 2847 2847 2846 2844 2842 2840 2837 2835 2831 2829 2827 2826 2826 2826 2828 2830 2834 2838 2840 2843 2846 2850 2853 2856 2860 2863 2867 2872 2878 2883 2886 2891 2897 2902 2905 2910 2914 2917 2919 2921 2922 2923 2924 2924
2844 2845 2845 2845 2846 2847 2847 2848 2847 2847 2846 2844 2843 2841 2839 2837 2835 2831 2829 2826 2824 2822 2821 2821 2822 2824 2827 2831 2834 2838 2841 2844 2848 2851 2855 2859 2863 2867 2871 2876 2883 2890 2894 2899 2903 2906 2909 2912 2915 2917 2918 2918 2919 2919
2840 2840 2840 2841 2842 2842 2844 2844 2844 2843 2843 2842 2840 2838 2836 2833 2831 2829 2825 2823 2821 2820 2819 2819 2819 2819 2822 2826 2830 2833 2837 2840 2843 2850 2854 2856 2860 2864 2869 2877 2884 2888 2892 2895 2898 2903 2906 2908 2910 2912 2912 2913 2914 2914
2835 2836 2836 2837 2837 2839 2840 2840 2840 2840 2840 2839 2837 2836 2833 2831 2829 2826 2824 2821 2820 2818 2818 2818 2818 2819 2820 2823 2827 2831 2836 2840 2845 2851 2856 2861 2865 2869 2874 2878 2882 2886 2888 2892 2896 2899 2902 2904 2905 2906 2907 2908 2909 2909
2830 2832 2833 2833 2834 2835 2836 2836 2836 2836 2836 2836 2835 2833 2832 2830 2828 2826 2823 2821 2820 2819 2819 2820 2821 2822 2823 2825 2829 2833 2838 2843 2847 2851 2856 2861 2865 2868 2872 2875 2878 2882 2885 2889 2893 2896 2898 2899 2899 2901 2902 2903 2904 2904
2825 2827 2828 2829 2830 2831 2832 2833 2833 2833 2833 2832 2831 2831 2830 2829 2828 2827 2825 2823 2822 2821 2822 2823 2824 2826 2828 2830 2833 2836 2840 2844 2848 2852 2855 2859 2863 2867 2870 2873 2877 2880 2884 2887 2890 2891 2892 2893 2895 2897 2898 2898 2899 2899